Goodland, KS

8:41 PM MST on November 13, 2019 (GMT -0700)
Renner-Goodland Municipal

Weather History for KGLD - October, 2019

Change the Weather History Date:

Wednesday, October 23, 2019

  Actual Average Record
Temperature  
Mean Temperature 47 °F 49 °F  
Max Temperature 62 °F 64 °F 88 °F (2003)
Min Temperature 32 °F 35 °F 8 °F (1917)
Degree Days  
Heating Degree Days 18 16  
Month to date heating degree days 323 275  
Since 1 July heating degree days 344 399  
Cooling Degree Days 0 0  
Month to date cooling degree days 1 5  
Year to date cooling degree days 1049 938  
Moisture  
Dew Point 26 °F    
Average Humidity 46    
Maximum Humidity 70    
Minimum Humidity 21    
Precipitation  
Precipitation 0.00 in 0.05 in 1.25 in (1914)
Month to date precipitation 0.09 1.08  
Year to date precipitation 21.60 18.20  
Snow  
Snow 0.00 in 0.10 in - ()
Month to date snowfall T 1.4  
Since 1 July snowfall T 1.8  
Since 1 September snowfall T 1.8  
Snow Depth 0.00 in    
Sea Level Pressure  
Sea Level Pressure 30.03 in    
Wind  
Wind Speed 16 mph (NNW)    
Max Wind Speed 29 mph    
Max Gust Speed 46 mph    
Visibility 10 miles    
Events      
T = Trace of Precipitation, MM = Missing Value Source: NWS Daily Summary

Daily Weather History Graph

Daily Weather History Graph

Search for Another Location

Airport or City:

Astronomy

Oct. 23, 2019 Rise Set
Actual Time 7:04 AM MDT 5:56 PM MDT
Civil Twilight 6:37 AM MDT 6:24 PM MDT
Nautical Twilight 6:06 AM MDT 6:55 PM MDT
Astronomical Twilight 5:35 AM MDT 7:26 PM MDT
Moon 1:28 AM MDT (10/23) 3:46 PM MDT (10/23)
Length of Visible Light 11h 46m
Length of Day
10h 52m
Waning Crescent, 26% of the Moon is Illuminated
Oct 23
Waning Crescent
Oct 27
New
Nov 4
First Quarter
Nov 12
Full
Nov 19
Last Quarter

Hourly Weather History & Observations

Time (MDT) Temp. Windchill Dew Point Humidity Pressure Visibility Wind Dir Wind Speed Gust Speed Precip Events Conditions
12:53 AM 42.1 °F 37.7 °F 23.0 °F 47% 29.84 in 10.0 mi West 6.9 mph - N/A   Mostly Cloudy
1:53 AM 44.1 °F 40.1 °F 21.9 °F 42% 29.83 in 10.0 mi WSW 6.9 mph - N/A   Overcast
2:53 AM 39.0 °F 34.8 °F 21.0 °F 49% 29.83 in 10.0 mi WSW 5.8 mph - N/A   Partly Cloudy
3:53 AM 39.0 °F 32.8 °F 21.0 °F 49% 29.83 in 10.0 mi WSW 9.2 mph - N/A   Clear
4:53 AM 36.0 °F 30.3 °F 21.9 °F 57% 29.86 in 10.0 mi Variable 6.9 mph - N/A   Clear
5:53 AM 39.9 °F 31.4 °F 25.0 °F 55% 29.93 in 10.0 mi NNW 16.1 mph - N/A   Clear
6:53 AM 43.0 °F 36.0 °F 32.0 °F 65% 29.96 in 10.0 mi NW 13.8 mph - N/A   Partly Cloudy
7:53 AM 43.0 °F 35.4 °F 34.0 °F 71% 29.97 in 10.0 mi NW 16.1 mph - N/A   Clear
8:53 AM 48.9 °F - 34.0 °F 56% 29.99 in 10.0 mi NW 18.4 mph 25.3 mph N/A   Clear
9:53 AM 52.0 °F - 32.0 °F 47% 29.99 in 10.0 mi NNW 24.2 mph 32.2 mph N/A   Clear
10:53 AM 55.9 °F - 30.0 °F 37% 29.98 in 10.0 mi North 21.9 mph 38.0 mph N/A   Clear
11:53 AM 57.9 °F - 28.9 °F 33% 29.98 in 10.0 mi North 24.2 mph 33.4 mph N/A   Clear
12:53 PM 60.1 °F - 27.0 °F 28% 29.95 in 10.0 mi North 23.0 mph 35.7 mph N/A   Clear
1:53 PM 60.1 °F - 25.0 °F 26% 29.94 in 10.0 mi NNW 21.9 mph 35.7 mph N/A   Clear
2:53 PM 62.1 °F - 23.0 °F 22% 29.96 in 10.0 mi NNW 18.4 mph 29.9 mph N/A   Partly Cloudy
3:53 PM 57.0 °F - 25.0 °F 29% 30.00 in 10.0 mi NNW 15.0 mph 35.7 mph N/A   Overcast
4:53 PM 54.0 °F - 26.1 °F 34% 30.05 in 10.0 mi NNW 13.8 mph 28.8 mph N/A   Overcast
5:53 PM 51.1 °F - 28.9 °F 43% 30.10 in 10.0 mi North 11.5 mph - N/A   Overcast
6:53 PM 46.0 °F 38.3 °F 28.0 °F 50% 30.20 in 10.0 mi North 20.7 mph 32.2 mph N/A   Overcast
7:53 PM 39.9 °F 30.2 °F 26.1 °F 58% 30.27 in 10.0 mi North 20.7 mph 29.9 mph N/A   Overcast
9:53 PM 35.1 °F 25.2 °F 24.1 °F 64% 30.30 in 10.0 mi North 16.1 mph 21.9 mph N/A   Scattered Clouds
10:53 PM 34.0 °F 25.5 °F 24.1 °F 67% 30.35 in 10.0 mi North 11.5 mph - N/A   Overcast
11:53 PM 33.1 °F 24.9 °F 24.1 °F 70% 30.34 in 10.0 mi North 10.4 mph - N/A   Overcast